Weather in Znamenskoe

Russia / Oryol Oblast     53°16′37″N   35°40′41″E
temp.,
°C
wind,
m/s
gust,
m/s
humid.,
%
clouds,
%
prec.,
mm/h
press.,
hPa
HPBL,
m
6 may, thu
thu600:00+9s61587100 0.1 1010335
03:00+9s61586100 0.1 1009402
06:00+10ssw81872100 0.0 1008744
09:00+12s81675100 0.0 10081328
12:00+11s101764100 0.1 10071169
15:00+9ssw91587100 1.7 1007918
18:00+9wsw5988100 0.4 1009710
21:00+6sw499488 0.4 1011209
7 may, fri
fri700:00+6wsw499387 0.0 1012190
03:00+4wsw348621 0.0 101362
06:00+4sw35855 0.0 101592
09:00+10ssw47615 0.0 1015517
12:00+13ssw7947100 0.0 10141946
15:00+13ssw5861100 0.0 10141115
18:00+13s4868100 0.0 1012486
21:00+9sse41077100 0.0 1012195
8 may, sat
sat800:00+9s61378100 0.0 1011388
03:00+9sse51387100 0.2 1009520
06:00+9sse71495100 1.9 1006628
09:00+10ssw61197100 5.3 1005678
12:00+10wsw61192100 0.6 1006753
15:00+10w6977100 1.0 10071095
18:00+8w71071100 0.0 10081191
21:00+6w51174100 0.0 1010455
9 may, sun
sun900:00+4wsw6128133 0.0 1011522
03:00+3w5128920 0.0 1012574
06:00+4w5118398 0.0 1013759
09:00+6wnw6980100 0.0 10161077
12:00+9nw6863100 0.1 10171607
15:00+12nnw794458 0.1 10182370
18:00+11nnw69535 0.0 1020969
21:00+5nw47690 0.0 102393
10 may, mon
mon1000:00+3nw35775 0.0 102580
03:00+3nnw34784 0.0 102657
06:00+3nnw35775 0.0 102892
09:00+10n46580 0.0 1028537
12:00+13n57465 0.0 10261472
15:00+14nne68461 0.0 10261656
18:00+13nne59580 0.0 1025690
21:00+7ne4117688 0.0 1026193